DW4669 Weather Reports


Display with metric or nautical units.
time (UTC)temp
F
wind
direction
speed
MPH
gust
MPH
rain 1hr
in
rain 24hr
in
rain mn
in
humidity
%
barometer
mb
20260902165021 65 0 0.0 0.0 0.00 0.04 0.02 94 1020.5
20260902164540 65 0 0.0 0.0 0.00 0.04 0.02 94 1020.5
20260902164016 65 0 0.0 0.0 0.00 0.04 0.02 94 1020.4
20260902163516 65 0 0.0 0.0 0.00 0.04 0.02 94 1020.6
20260902163033 65 0 0.0 0.0 0.00 0.04 0.02 94 1020.7
20260902162518 65 0 0.0 0.0 0.00 0.04 0.02 94 1020.8
20260902162017 65 0 0.0 1.0 0.00 0.04 0.02 94 1020.8
20260902161537 65 0 0.0 1.0 0.00 0.04 0.02 94 1020.6
20260902161016 65 0 0.0 0.0 0.00 0.04 0.02 94 1020.7
20260902160519 65 0 0.0 0.0 0.00 0.04 0.02 94 1020.6
20260902160037 64 0 0.0 1.0 0.00 0.04 0.02 94 1020.7
20260902155517 64 0 0.0 1.0 0.00 0.06 0.02 94 1020.7
20260902155020 64 0 0.0 0.0 0.00 0.06 0.02 94 1020.5
20260902154541 64 0 0.0 1.0 0.00 0.06 0.02 94 1020.6
20260902154020 64 0 0.0 1.0 0.00 0.06 0.02 94 1020.5
20260902153518 64 0 0.0 0.0 0.00 0.06 0.02 94 1020.5
20260902153038 64 0 0.0 1.0 0.00 0.06 0.02 94 1020.6
20260902152516 64 0 0.0 1.0 0.00 0.06 0.02 94 1020.6
20260902152021 64 0 0.0 1.0 0.00 0.06 0.02 94 1020.5
20260902151535 64 0 0.0 0.0 0.00 0.06 0.02 94 1020.5
20260902151019 64 0 0.0 0.0 0.00 0.06 0.02 95 1020.6
20260902150517 64 0 0.0 0.0 0.00 0.06 0.02 95 1020.5
20260902150039 64 0 0.0 1.0 0.00 0.06 0.02 95 1020.7
20260902145517 64 0 0.0 1.0 0.00 0.12 0.02 95 1020.7
20260902145017 64 0 0.0 1.0 0.00 0.12 0.02 95 1020.7
20260902144538 64 0 0.0 0.0 0.00 0.12 0.02 95 1020.9
20260902144018 64 0 0.0 0.0 0.00 0.12 0.02 95 1021.2
20260902143518 64 0 0.0 0.0 0.00 0.12 0.02 95 1021.3
20260902143034 64 0 0.0 0.0 0.00 0.12 0.02 95 1021.0
20260902142518 64 0 0.0 0.0 0.00 0.12 0.02 95 1020.9
20260902142015 64 0 0.0 1.0 0.00 0.12 0.02 95 1020.8
20260902141536 64 0 0.0 1.0 0.00 0.12 0.02 96 1020.8
20260902141017 64 0 0.0 1.0 0.00 0.12 0.02 95 1020.7
20260902140517 64 0 0.0 1.0 0.00 0.12 0.02 96 1020.7
20260902140039 64 0 0.0 0.0 0.00 0.12 0.02 96 1020.6
20260902135518 64 0 0.0 0.0 0.00 0.16 0.02 96 1020.7
20260902135016 63 0 0.0 0.0 0.00 0.16 0.02 96 1020.9
20260902134536 64 0 0.0 0.0 0.00 0.16 0.02 96 1021.1
20260902134017 63 0 0.0 0.0 0.00 0.16 0.02 96 1020.9
20260902133516 64 0 0.0 0.0 0.00 0.16 0.02 97 1020.8
20260902133034 63 0 0.0 0.0 0.00 0.16 0.02 97 1020.7
20260902132518 63 0 0.0 1.0 0.00 0.16 0.02 96 1020.5
20260902132015 63 0 0.0 1.0 0.00 0.16 0.02 96 1020.4
20260902131536 63 0 0.0 1.0 0.00 0.16 0.02 97 1020.5
20260902131022 63 0 0.0 1.0 0.00 0.16 0.02 97 1020.6
20260902130518 63 0 0.0 4.0 0.00 0.16 0.02 97 1020.4
20260902130034 63 0 0.0 4.0 0.00 0.16 0.02 97 1020.4
20260902125518 63 0 0.0 0.0 0.00 0.16 0.02 97 1020.4
20260902125018 63 0 0.0 1.0 0.00 0.16 0.02 97 1020.4
20260902124535 63 0 0.0 1.0 0.00 0.16 0.02 97 1020.3
20260902124017 63 0 0.0 1.0 0.00 0.16 0.02 97 1020.3
20260902123516 63 0 0.0 0.0 0.00 0.16 0.02 97 1020.2
20260902123035 63 0 0.0 2.0 0.00 0.16 0.02 97 1020.0
20260902122519 63 0 0.0 2.0 0.00 0.16 0.02 97 1019.9
20260902122015 64 0 0.0 0.0 0.00 0.16 0.02 97 1019.8
20260902121535 64 0 0.0 0.0 0.00 0.16 0.02 97 1019.8
20260902121019 64 0 0.0 1.0 0.00 0.16 0.02 97 1019.8
20260902120520 64 0 0.0 1.0 0.00 0.16 0.02 97 1020.0
20260902120034 64 0 0.0 1.0 0.00 0.16 0.02 97 1019.9
20260902115519 64 0 0.0 0.0 0.00 0.16 0.02 97 1020.0
20260902115018 64 0 0.0 0.0 0.00 0.16 0.02 97 1020.0
20260902114537 64 0 0.0 0.0 0.00 0.16 0.02 97 1019.9
20260902114021 64 0 0.0 0.0 0.00 0.16 0.02 97 1019.9
20260902113518 64 0 0.0 0.0 0.00 0.16 0.02 97 1020.0
20260902113041 64 0 0.0 0.0 0.00 0.16 0.02 97 1019.9
20260902112516 64 0 0.0 0.0 0.00 0.16 0.02 97 1019.9
20260902112016 63 0 0.0 0.0 0.00 0.16 0.02 97 1020.0
20260902111537 64 0 0.0 0.0 0.00 0.16 0.02 97 1020.0
20260902111018 63 0 0.0 0.0 0.00 0.16 0.02 97 1019.8
20260902110517 63 0 0.0 0.0 0.00 0.16 0.02 97 1020.0
20260902110034 63 0 0.0 0.0 0.00 0.16 0.02 97 1020.1
20260902105516 63 0 0.0 0.0 0.00 0.17 0.02 97 1019.9
20260902105016 63 0 0.0 0.0 0.00 0.17 0.02 97 1019.8
20260902104544 63 0 0.0 0.0 0.00 0.17 0.02 97 1019.8
20260902104018 63 0 0.0 0.0 0.00 0.17 0.02 97 1019.8
20260902103516 63 0 0.0 0.0 0.01 0.17 0.02 97 1019.8
20260902103044 63 0 0.0 0.0 0.01 0.17 0.02 97 1019.7
20260902102516 63 0 0.0 0.0 0.01 0.17 0.02 97 1019.8
20260902102019 63 0 0.0 0.0 0.01 0.17 0.02 97 1020.0
20260902101544 63 0 0.0 0.0 0.01 0.17 0.02 97 1019.9
20260902101023 63 0 0.0 0.0 0.01 0.17 0.02 97 1019.7
20260902100520 63 0 0.0 0.0 0.01 0.17 0.02 97 1019.7
20260902100034 63 0 0.0 0.0 0.01 0.17 0.02 97 1019.6
20260902095516 63 0 0.0 0.0 0.01 0.17 0.02 97 1019.5
20260902095015 63 0 0.0 0.0 0.01 0.17 0.02 97 1019.4
20260902094535 63 0 0.0 0.0 0.01 0.17 0.02 97 1019.4
20260902094018 63 0 0.0 0.0 0.01 0.17 0.02 96 1019.4
20260902093518 63 0 0.0 0.0 0.00 0.16 0.01 96 1019.4
20260902093043 63 0 0.0 0.0 0.00 0.16 0.01 97 1019.4
20260902092517 63 0 0.0 0.0 0.00 0.16 0.01 97 1019.2
20260902092018 63 0 0.0 0.0 0.00 0.16 0.01 97 1019.2
20260902091539 63 0 0.0 0.0 0.00 0.16 0.01 97 1019.1
20260902091018 63 0 0.0 0.0 0.00 0.16 0.01 97 1019.1
20260902090517 63 0 0.0 0.0 0.00 0.16 0.01 97 1019.2
20260902090036 64 0 0.0 0.0 0.00 0.16 0.01 97 1019.1
20260902085515 64 0 0.0 0.0 0.00 0.16 0.01 97 1019.1
20260902085019 64 0 0.0 0.0 0.00 0.16 0.01 97 1019.1
20260902084547 64 0 0.0 0.0 0.00 0.16 0.01 96 1019.2
20260902084018 64 0 0.0 0.0 0.00 0.16 0.01 97 1019.2
20260902083522 64 0 0.0 0.0 0.00 0.16 0.01 96 1019.3
20260902083042 64 0 0.0 0.0 0.00 0.16 0.01 96 1019.2
20260902082518 64 0 0.0 0.0 0.00 0.16 0.01 96 1019.1
20260902082018 64 0 0.0 0.0 0.00 0.16 0.01 96 1019.1
20260902081535 64 0 0.0 0.0 0.00 0.16 0.01 96 1018.9
20260902081018 64 0 0.0 0.0 0.00 0.16 0.01 96 1018.9
20260902080516 64 0 0.0 0.0 0.00 0.16 0.01 96 1018.8
20260902080034 64 0 0.0 0.0 0.00 0.16 0.01 96 1018.7
20260902075517 64 0 0.0 0.0 0.00 0.16 0.01 96 1018.8
20260902075017 64 0 0.0 0.0 0.00 0.16 0.01 96 1018.8
20260902074535 64 0 0.0 0.0 0.00 0.16 0.01 96 1018.8
20260902074017 64 0 0.0 0.0 0.00 0.16 0.01 96 1018.7
20260902073515 64 0 0.0 0.0 0.00 0.16 0.01 96 1018.7
20260902073036 64 0 0.0 0.0 0.00 0.16 0.01 96 1018.7
20260902072517 64 0 0.0 0.0 0.00 0.16 0.01 96 1018.8
20260902072016 64 0 0.0 0.0 0.00 0.16 0.01 96 1018.8
20260902071538 64 0 0.0 0.0 0.00 0.16 0.01 96 1018.8
20260902071020 64 0 0.0 0.0 0.00 0.16 0.01 96 1018.8
20260902070516 64 0 0.0 0.0 0.00 0.16 0.01 96 1018.9
20260902070037 64 0 0.0 0.0 0.00 0.16 0.01 96 1018.9
20260902065518 64 0 0.0 0.0 0.00 0.17 0.01 96 1018.8
20260902065019 64 0 0.0 0.0 0.01 0.17 0.01 96 1018.7
20260902064535 64 0 0.0 0.0 0.01 0.17 0.01 96 1018.7
20260902064018 64 0 0.0 0.0 0.01 0.17 0.01 96 1018.6
20260902063517 64 0 0.0 0.0 0.01 0.17 0.01 96 1018.6
20260902063034 64 0 0.0 0.0 0.01 0.17 0.01 96 1018.6
20260902062517 64 0 0.0 0.0 0.01 0.17 0.01 96 1018.7
20260902062022 64 0 0.0 0.0 0.01 0.17 0.01 96 1018.8
20260902061545 64 0 0.0 1.0 0.01 0.17 0.01 96 1018.9
20260902061018 64 0 0.0 1.0 0.01 0.17 0.01 96 1019.1
20260902060515 64 0 0.0 1.0 0.01 0.17 0.01 96 1018.9
20260902060034 64 0 0.0 0.0 0.01 0.17 0.01 96 1018.8
20260902055520 64 0 0.0 0.0 0.01 0.17 0.01 96 1018.8
20260902055019 64 0 0.0 0.0 0.00 0.16 0.00 96 1018.9
20260902054538 64 0 0.0 0.0 0.00 0.16 0.00 96 1018.9
20260902054015 64 0 0.0 0.0 0.00 0.16 0.00 96 1019.0
20260902053516 64 0 0.0 1.0 0.00 0.16 0.00 95 1018.8
20260902053035 64 0 0.0 1.0 0.00 0.16 0.00 95 1018.8
20260902052521 64 0 0.0 1.0 0.00 0.16 0.00 95 1018.7
20260902052019 64 0 0.0 0.0 0.00 0.16 0.00 95 1018.5
20260902051539 65 0 0.0 0.0 0.00 0.16 0.00 95 1018.6
20260902051017 65 0 0.0 0.0 0.00 0.16 0.00 95 1018.6
20260902050517 65 0 0.0 0.0 0.00 0.16 0.00 95 1018.6
20260902050033 65 0 0.0 0.0 0.00 0.16 0.00 95 1018.5
20260902045515 65 0 0.0 1.0 0.00 0.48 0.00 95 1018.6
20260902045020 65 0 0.0 1.0 0.00 0.48 0.00 95 1018.6
20260902044551 65 0 0.0 0.0 0.00 0.48 0.00 95 1018.6
20260902044016 65 0 0.0 0.0 0.00 0.48 0.00 95 1018.7
20260902043517 65 0 0.0 1.0 0.00 0.48 0.00 95 1018.6
20260902043034 65 0 0.0 1.0 0.00 0.48 0.00 95 1018.6
20260902042518 65 0 0.0 1.0 0.00 0.48 0.00 95 1018.6
20260902042018 65 0 0.0 0.0 0.00 0.48 0.00 95 1018.6
20260902041534 65 0 0.0 0.0 0.00 0.48 0.00 95 1018.6
20260902041022 65 0 0.0 0.0 0.00 0.48 0.00 95 1018.5
20260902040518 65 0 0.0 0.0 0.00 0.48 0.00 94 1018.4
20260902040035 65 0 0.0 2.0 0.00 0.48 0.00 94 1018.4
20260902035516 65 0 0.0 2.0 0.00 0.65 0.48 94 1018.3
20260902035015 66 0 0.0 1.0 0.00 0.65 0.48 94 1018.2
20260902034538 66 0 0.0 0.0 0.00 0.65 0.48 94 1018.2
20260902034017 66 0 0.0 2.0 0.00 0.65 0.48 93 1018.0
20260902033518 66 0 0.0 2.0 0.00 0.65 0.48 93 1017.9
20260902033035 67 223 0.0 1.0 0.00 0.65 0.48 93 1017.9
20260902032518 67 0 0.0 1.0 0.00 0.65 0.48 93 1017.7
20260902032018 67 0 0.0 5.0 0.00 0.65 0.48 93 1017.7
20260902031539 67 0 0.0 5.0 0.00 0.65 0.48 93 1017.6
20260902031016 67 0 0.0 0.0 0.00 0.65 0.48 93 1017.6
20260902030517 68 0 0.0 2.0 0.00 0.65 0.48 93 1017.5
20260902030035 68 0 0.0 3.0 0.00 0.65 0.48 93 1017.3
20260902025518 68 0 0.0 3.0 0.00 0.65 0.48 93 1017.2
20260902025018 68 0 0.0 3.0 0.00 0.65 0.48 93 1017.0
20260902024537 68 0 0.0 0.0 0.00 0.65 0.48 93 1016.8
20260902024017 69 0 0.0 0.0 0.00 0.65 0.48 93 1016.6
20260902023518 69 0 0.0 1.0 0.00 0.65 0.48 93 1016.7
20260902023038 69 0 0.0 1.0 0.00 0.65 0.48 93 1016.6
20260902022517 69 0 0.0 0.0 0.00 0.65 0.48 93 1016.6
20260902022017 69 0 0.0 0.0 0.00 0.65 0.48 93 1016.5
20260902021546 69 0 0.0 0.0 0.00 0.65 0.48 93 1016.6
20260902021019 69 0 0.0 0.0 0.00 0.65 0.48 93 1016.6
20260902020518 70 0 0.0 0.0 0.00 0.65 0.48 93 1016.7
20260902020036 70 0 0.0 1.0 0.00 0.65 0.48 93 1016.8
20260902015516 70 0 0.0 2.0 0.00 0.66 0.48 93 1016.7
20260902015018 70 0 0.0 2.0 0.00 0.66 0.48 93 1016.7
20260902014541 70 0 0.0 2.0 0.00 0.66 0.48 93 1016.6
20260902014023 70 0 0.0 2.0 0.00 0.66 0.48 92 1016.6
20260902013517 71 0 0.0 0.0 0.00 0.66 0.48 93 1016.6
20260902013035 71 0 0.0 0.0 0.00 0.66 0.48 93 1016.6
20260902012520 71 0 0.0 2.0 0.00 0.66 0.48 94 1016.3
20260902012019 72 0 0.0 2.0 0.00 0.66 0.48 93 1016.1
20260902011534 72 0 0.0 3.0 0.00 0.66 0.48 94 1016.1
20260902011016 72 0 0.0 3.0 0.00 0.66 0.48 94 1015.9
20260902010517 72 0 0.0 3.0 0.00 0.66 0.48 94 1015.8
20260902010037 72 0 0.0 3.0 0.00 0.66 0.48 94 1016.0
20260902005519 73 0 0.0 0.0 0.00 0.66 0.48 94 1015.9
20260902005017 73 0 0.0 1.0 0.00 0.66 0.48 95 1015.7
20260902004534 73 0 0.0 1.0 0.00 0.66 0.48 95 1015.6
20260902004018 73 0 0.0 1.0 0.00 0.66 0.48 95 1015.5
20260902003518 73 0 0.0 1.0 0.00 0.66 0.48 95 1015.5
20260902003039 73 0 0.0 1.0 0.00 0.66 0.48 95 1015.3
20260902002519 73 227 0.0 1.0 0.00 0.66 0.48 95 1015.3
20260902002018 73 0 0.0 1.0 0.00 0.66 0.48 95 1015.1
20260902001537 73 0 0.0 2.0 0.00 0.66 0.48 95 1015.0
20260902001018 73 0 0.0 2.0 0.00 0.66 0.48 94 1015.1
20260902000519 73 0 0.0 4.0 0.00 0.66 0.48 94 1015.1
20260902000037 73 0 0.0 4.0 0.00 0.66 0.48 94 1014.9
20260901235516 73 0 0.0 3.0 0.00 0.66 0.48 94 1014.8
20260901235019 73 0 0.0 3.0 0.00 0.66 0.48 94 1014.7
20260901234533 73 0 0.0 1.0 0.00 0.66 0.48 94 1014.6
20260901234017 73 0 0.0 4.0 0.00 0.66 0.48 93 1014.7
20260901233518 74 0 0.0 8.0 0.00 0.66 0.48 93 1014.9
20260901233035 74 339 1.0 8.0 0.00 0.66 0.48 93 1014.9
20260901232518 74 0 1.0 3.0 0.00 0.66 0.48 92 1015.0
20260901232018 75 300 0.0 3.0 0.00 0.66 0.48 92 1014.9
20260901231537 75 261 0.0 7.0 0.00 0.66 0.48 92 1015.0
20260901231022 75 0 1.0 7.0 0.00 0.66 0.48 92 1015.0
20260901230517 76 0 0.0 6.0 0.00 0.66 0.48 91 1014.9
20260901230034 76 0 0.0 6.0 0.00 0.66 0.48 91 1014.7
20260901225518 77 348 0.0 10.0 0.00 0.66 0.48 90 1014.9
20260901225015 77 315 1.0 10.0 0.00 0.66 0.48 89 1014.7
20260901224535 78 314 0.0 6.0 0.00 0.66 0.48 90 1014.5
20260901224017 78 0 1.0 4.0 0.00 0.66 0.48 90 1014.3
20260901223517 78 0 0.0 1.0 0.00 0.66 0.48 91 1014.1
20260901223042 79 0 0.0 1.0 0.00 0.66 0.48 90 1013.8
20260901222517 79 261 0.0 1.0 0.00 0.66 0.48 89 1013.8
20260901222021 80 0 0.0 0.0 0.00 0.66 0.48 88 1013.8
20260901221536 80 0 0.0 1.0 0.00 0.66 0.48 88 1013.8
20260901221018 80 0 0.0 1.0 0.00 0.66 0.48 86 1013.8
20260901220517 80 0 0.0 0.0 0.00 0.66 0.48 87 1013.9
20260901220039 80 0 0.0 0.0 0.00 0.66 0.48 87 1013.9
20260901215517 80 0 0.0 0.0 0.00 0.66 0.48 85 1014.0
20260901215016 81 0 0.0 0.0 0.00 0.66 0.48 85 1014.0
20260901214535 81 0 0.0 0.0 0.00 0.66 0.48 84 1014.0
20260901214019 82 0 0.0 0.0 0.00 0.66 0.48 83 1014.1
20260901213518 82 0 0.0 0.0 0.00 0.66 0.48 82 1014.0
20260901213100 82 0 0.0 0.0 0.00 0.66 0.48 84 1014.0
20260901212518 82 0 0.0 0.0 0.00 0.66 0.48 83 1013.8
20260901212018 82 0 0.0 0.0 0.00 0.66 0.48 82 1013.7
20260901211536 82 0 0.0 0.0 0.00 0.66 0.48 81 1014.0
20260901211016 82 0 0.0 0.0 0.00 0.66 0.48 82 1013.9
20260901210515 81 0 0.0 0.0 0.00 0.66 0.48 83 1014.0
20260901210034 82 0 0.0 0.0 0.00 0.66 0.48 86 1013.9
20260901205516 81 0 0.0 1.0 0.00 0.66 0.48 82 1014.0
20260901205017 82 0 0.0 1.0 0.00 0.66 0.48 82 1013.9
20260901204545 82 0 0.0 2.0 0.00 0.66 0.48 85 1013.9
20260901204019 82 261 0.0 2.0 0.00 0.66 0.48 82 1013.9
20260901203517 82 0 0.0 2.0 0.00 0.66 0.48 82 1013.9
20260901203034 81 0 0.0 0.0 0.00 0.66 0.48 81 1013.9
20260901202518 81 0 0.0 0.0 0.00 0.66 0.48 82 1013.9
20260901202019 80 0 0.0 0.0 0.00 0.66 0.48 84 1013.9
20260901201537 80 0 0.0 1.0 0.00 0.66 0.48 85 1013.9
20260901201016 80 0 0.0 1.0 0.00 0.66 0.48 83 1014.0
20260901200517 80 0 0.0 1.0 0.00 0.66 0.48 83 1014.1
20260901200036 80 0 0.0 1.0 0.00 0.66 0.48 83 1014.0
20260901195518 81 0 0.0 1.0 0.00 0.66 0.48 82 1014.0
20260901195018 81 0 0.0 2.0 0.00 0.66 0.48 81 1014.1
20260901194538 81 0 0.0 2.0 0.00 0.66 0.48 81 1014.0
20260901194019 81 0 0.0 2.0 0.00 0.66 0.48 81 1014.0
20260901193518 81 0 0.0 1.0 0.00 0.66 0.48 83 1014.0
20260901193036 80 0 0.0 8.0 0.00 0.66 0.48 83 1014.1
20260901192515 80 0 0.0 8.0 0.00 0.66 0.48 84 1014.0
20260901192016 80 0 0.0 5.0 0.00 0.66 0.48 84 1013.9
20260901191540 80 0 0.0 4.0 0.00 0.66 0.48 84 1014.0
20260901191018 79 0 0.0 3.0 0.00 0.66 0.48 86 1014.1
20260901190517 79 0 0.0 3.0 0.00 0.66 0.48 84 1014.1
20260901190035 79 0 0.0 4.0 0.00 0.66 0.48 85 1014.1
20260901185519 79 0 0.0 4.0 0.00 0.66 0.48 84 1014.2
20260901185021 79 0 0.0 2.0 0.00 0.66 0.48 86 1014.3
20260901184544 79 0 0.0 2.0 0.00 0.66 0.48 85 1014.2
20260901184020 78 0 0.0 2.0 0.00 0.66 0.48 86 1014.3
20260901183518 78 0 0.0 1.0 0.00 0.66 0.48 87 1014.3
20260901183036 78 0 0.0 0.0 0.00 0.66 0.48 88 1014.3
20260901182518 77 0 0.0 4.0 0.00 0.66 0.48 88 1014.3
20260901182019 77 0 0.0 4.0 0.00 0.66 0.48 90 1014.3
20260901181536 77 163 0.0 4.0 0.00 0.66 0.48 89 1014.2
20260901181017 77 0 0.0 2.0 0.00 0.66 0.48 89 1014.4
20260901180521 76 0 0.0 3.0 0.00 0.66 0.48 91 1014.2
20260901180039 76 0 0.0 3.0 0.00 0.66 0.48 91 1014.4
20260901175518 76 0 0.0 4.0 0.00 0.66 0.48 92 1014.3
20260901175016 76 0 0.0 4.0 0.00 0.66 0.48 96 1014.3
20260901174537 75 0 0.0 3.0 0.00 0.66 0.48 95 1014.3
20260901174018 75 0 0.0 2.0 0.00 0.66 0.48 97 1014.3
20260901173522 75 0 0.0 4.0 0.00 0.66 0.48 98 1014.3
20260901173037 74 0 0.0 4.0 0.00 0.66 0.48 98 1014.3
20260901172524 74 306 0.0 4.0 0.00 0.66 0.48 99 1014.4
20260901172021 74 303 0.0 4.0 0.01 0.66 0.48 99 1014.3
20260901171541 73 117 0.0 3.0 0.01 0.66 0.48 99 1014.3
20260901171018 73 0 0.0 3.0 0.01 0.66 0.48 98 1014.4
20260901170518 73 0 0.0 4.0 0.01 0.66 0.48 99 1014.3
20260901170034 73 0 0.0 6.0 0.02 0.66 0.48 98 1014.2
20260901165516 73 0 1.0 6.0 0.02 0.66 0.48 99 1014.1